TimeCDT,TemperatureF,Dew PointF,Humidity,Sea Level PressureIn,VisibilityMPH,Wind Direction,Wind SpeedMPH,Gust SpeedMPH,PrecipitationIn,Events,Conditions,WindDirDegrees,DateUTC
12:15 AM,72.7,56.7,57,29.76,10.0,SW,12.7,-,N/A,,Clear,220,2013-07-23 05:15:00
12:35 AM,72.9,56.8,57,29.76,10.0,SW,11.5,-,N/A,,Clear,230,2013-07-23 05:35:00
12:55 AM,71.8,56.8,59,29.76,10.0,SW,10.4,-,N/A,,Clear,220,2013-07-23 05:55:00
1:15 AM,71.4,57.6,62,29.76,10.0,West,5.8,-,N/A,,Clear,280,2013-07-23 06:15:00
1:35 AM,67.8,59.5,75,29.76,10.0,North,4.6,-,N/A,,Clear,10,2013-07-23 06:35:00
1:55 AM,66.2,60.4,82,29.76,10.0,Calm,Calm,-,N/A,,Clear,0,2013-07-23 06:55:00
2:15 AM,65.8,59.9,81,29.76,10.0,WSW,4.6,-,N/A,,Clear,250,2013-07-23 07:15:00
2:35 AM,65.7,59.9,82,29.76,10.0,Calm,Calm,-,N/A,,Clear,0,2013-07-23 07:35:00
2:55 AM,65.1,59.9,83,29.76,10.0,WNW,3.5,-,N/A,,Clear,290,2013-07-23 07:55:00
3:15 AM,64.4,61.2,89,29.75,10.0,WNW,4.6,-,N/A,,Clear,290,2013-07-23 08:15:00
3:35 AM,65.3,62.2,90,29.75,10.0,WNW,5.8,-,N/A,,Clear,290,2013-07-23 08:35:00
3:55 AM,66.0,63.7,92,29.75,10.0,WNW,5.8,-,N/A,,Scattered Clouds,300,2013-07-23 08:55:00
4:15 AM,66.9,64.4,92,29.76,10.0,NW,5.8,-,N/A,,Scattered Clouds,310,2013-07-23 09:15:00
4:35 AM,67.5,65.1,92,29.76,10.0,NW,4.6,-,N/A,,Mostly Cloudy,310,2013-07-23 09:35:00
4:55 AM,67.5,64.9,92,29.78,10.0,NW,5.8,-,N/A,,Overcast,320,2013-07-23 09:55:00
5:15 AM,68.2,64.4,88,29.79,10.0,NNW,6.9,-,N/A,,Overcast,330,2013-07-23 10:15:00
5:35 AM,68.0,62.2,82,29.80,10.0,NNW,9.2,-,N/A,,Overcast,340,2013-07-23 10:35:00
5:55 AM,67.3,57.9,72,29.81,10.0,North,6.9,-,N/A,,Overcast,350,2013-07-23 10:55:00
6:15 AM,66.2,57.7,74,29.81,10.0,NNW,9.2,-,N/A,,Mostly Cloudy,340,2013-07-23 11:15:00
6:35 AM,65.8,56.8,73,29.82,10.0,North,8.1,-,N/A,,Scattered Clouds,350,2013-07-23 11:35:00
6:55 AM,66.7,56.3,69,29.83,10.0,NNW,11.5,18.4,N/A,,Clear,340,2013-07-23 11:55:00
7:15 AM,67.3,55.9,67,29.84,10.0,NNW,5.8,18.4,N/A,,Mostly Cloudy,330,2013-07-23 12:15:00
7:35 AM,67.6,54.0,61,29.86,10.0,NNW,9.2,-,N/A,,Mostly Cloudy,330,2013-07-23 12:35:00
7:55 AM,68.0,53.8,60,29.87,10.0,NNW,5.8,18.4,N/A,,Scattered Clouds,340,2013-07-23 12:55:00
8:15 AM,68.0,53.2,59,29.87,10.0,NNW,12.7,20.7,N/A,,Clear,330,2013-07-23 13:15:00
8:35 AM,68.5,53.4,58,29.86,10.0,NNW,8.1,-,N/A,,Clear,340,2013-07-23 13:35:00
8:55 AM,68.9,52.9,57,29.87,10.0,NNW,12.7,23.0,N/A,,Clear,340,2013-07-23 13:55:00
9:15 AM,69.4,53.1,56,29.87,10.0,NNW,17.3,28.8,N/A,,Clear,330,2013-07-23 14:15:00
9:35 AM,70.3,53.1,54,29.86,10.0,North,5.8,-,N/A,,Clear,360,2013-07-23 14:35:00
9:55 AM,70.9,52.5,52,29.87,10.0,NNW,19.6,29.9,N/A,,Clear,330,2013-07-23 14:55:00
10:15 AM,71.8,51.4,49,29.88,10.0,North,9.2,18.4,N/A,,Scattered Clouds,350,2013-07-23 15:15:00
10:35 AM,72.0,50.5,47,29.90,10.0,North,10.4,21.9,N/A,,Scattered Clouds,360,2013-07-23 15:35:00
10:55 AM,70.7,50.9,49,29.90,10.0,NNW,8.1,21.9,N/A,,Scattered Clouds,340,2013-07-23 15:55:00
11:15 AM,73.6,50.7,45,29.90,10.0,North,4.6,19.6,N/A,,Clear,10,2013-07-23 16:15:00
11:35 AM,74.1,50.2,43,29.90,10.0,North,4.6,21.9,N/A,,Scattered Clouds,360,2013-07-23 16:35:00
11:55 AM,72.7,52.0,48,29.91,10.0,NW,13.8,20.7,N/A,,Mostly Cloudy,310,2013-07-23 16:55:00
12:15 PM,73.2,51.6,47,29.91,10.0,NW,15.0,23.0,N/A,,Mostly Cloudy,320,2013-07-23 17:15:00
12:35 PM,73.4,51.4,46,29.91,10.0,NNW,15.0,23.0,N/A,,Mostly Cloudy,340,2013-07-23 17:35:00
12:55 PM,75.0,50.4,42,29.92,10.0,NNW,13.8,24.2,N/A,,Scattered Clouds,340,2013-07-23 17:55:00
1:15 PM,75.4,49.5,40,29.91,10.0,NNW,13.8,-,N/A,,Clear,340,2013-07-23 18:15:00
1:35 PM,75.7,50.2,41,29.92,10.0,NNW,12.7,19.6,N/A,,Scattered Clouds,330,2013-07-23 18:35:00
1:55 PM,73.6,49.8,43,29.93,10.0,NNW,11.5,-,N/A,,Mostly Cloudy,330,2013-07-23 18:55:00
2:15 PM,75.6,49.6,40,29.92,10.0,NNW,10.4,17.3,N/A,,Scattered Clouds,340,2013-07-23 19:15:00
2:35 PM,75.9,50.4,41,29.93,10.0,NNW,12.7,19.6,N/A,,Scattered Clouds,330,2013-07-23 19:35:00
3:15 PM,75.9,48.7,38,29.93,10.0,NNW,15.0,26.5,N/A,,Scattered Clouds,340,2013-07-23 20:15:00
3:35 PM,75.4,49.3,40,29.93,10.0,North,10.4,17.3,N/A,,Mostly Cloudy,360,2013-07-23 20:35:00
3:55 PM,74.5,49.6,42,29.93,10.0,North,10.4,-,N/A,,Mostly Cloudy,350,2013-07-23 20:55:00
4:15 PM,76.5,50.2,40,29.93,10.0,North,12.7,16.1,N/A,,Mostly Cloudy,10,2013-07-23 21:15:00
4:35 PM,75.6,49.6,40,29.93,10.0,North,9.2,-,N/A,,Mostly Cloudy,360,2013-07-23 21:35:00
4:55 PM,74.7,50.4,42,29.93,10.0,North,12.7,16.1,N/A,,Scattered Clouds,350,2013-07-23 21:55:00
5:15 PM,75.0,49.6,41,29.93,10.0,North,9.2,16.1,N/A,,Clear,360,2013-07-23 22:15:00
5:35 PM,74.3,48.9,41,29.93,10.0,NE,11.5,-,N/A,,Scattered Clouds,40,2013-07-23 22:35:00
5:55 PM,74.3,49.6,42,29.93,10.0,NNE,8.1,16.1,N/A,,Mostly Cloudy,30,2013-07-23 22:55:00
6:15 PM,71.6,49.6,46,29.93,10.0,NNE,10.4,-,N/A,,Scattered Clouds,20,2013-07-23 23:15:00
6:35 PM,72.1,49.3,44,29.93,10.0,NNE,10.4,-,N/A,,Clear,20,2013-07-23 23:35:00
6:55 PM,71.8,49.5,45,29.93,10.0,NNE,8.1,-,N/A,,Clear,20,2013-07-23 23:55:00
7:15 PM,70.7,50.5,49,29.93,10.0,North,5.8,-,N/A,,Clear,10,2013-07-24 00:15:00
7:35 PM,69.6,50.4,50,29.94,10.0,NNE,6.9,-,N/A,,Clear,20,2013-07-24 00:35:00
7:55 PM,67.3,51.4,57,29.94,10.0,North,5.8,-,N/A,,Clear,10,2013-07-24 00:55:00
8:15 PM,66.4,51.8,59,29.95,10.0,North,5.8,-,N/A,,Clear,360,2013-07-24 01:15:00
8:35 PM,63.7,53.6,70,29.96,10.0,North,3.5,-,N/A,,Clear,350,2013-07-24 01:35:00
8:55 PM,62.8,53.8,72,29.97,10.0,Calm,Calm,-,N/A,,Clear,0,2013-07-24 01:55:00
9:15 PM,62.2,54.1,75,29.98,10.0,Calm,Calm,-,N/A,,Clear,0,2013-07-24 02:15:00
9:35 PM,60.1,55.0,83,29.99,10.0,Calm,Calm,-,N/A,,Clear,0,2013-07-24 02:35:00
9:55 PM,59.2,56.8,92,29.99,10.0,Calm,Calm,-,N/A,,Clear,0,2013-07-24 02:55:00
10:15 PM,58.1,56.3,94,29.99,10.0,Calm,Calm,-,N/A,,Clear,0,2013-07-24 03:15:00
10:35 PM,59.0,57.2,94,30.00,10.0,Calm,Calm,-,N/A,,Clear,0,2013-07-24 03:35:00
10:55 PM,57.2,55.4,94,30.00,10.0,Calm,Calm,-,N/A,,Clear,0,2013-07-24 03:55:00
11:15 PM,57.6,56.3,96,30.01,10.0,Calm,Calm,-,N/A,,Clear,0,2013-07-24 04:15:00
11:35 PM,57.2,55.6,94,30.01,10.0,Calm,Calm,-,N/A,,Clear,0,2013-07-24 04:35:00
11:55 PM,56.7,55.4,96,30.01,7.0,Calm,Calm,-,N/A,,Clear,0,2013-07-24 04:55:00